Location: Ocean City
(38.3360°N, 75.0850°W)
Time: 21:40:30
(UTC-04:00)

MOZHAYETS 4 - Pass Details

Date: 24 May 2019
Orbit: 661 x 681 km, 98.0° (Epoch: 16 June)

Event Time Altitude Azimuth Distance (km) Brightness Sun altitude
Exits shadow 04:05:14 23° 259° (W) 1,427 8.9 -16.3°
Maximum altitude 04:05:31 23° 265° (W) 1,422 9.0 -16.2°
Drops below altitude 10° 04:09:11 10° 318° (NW) 2,110 10.3 -15.7°
Sets 04:11:50 0° 333° (NNW) 3,025 11.3 -15.4°
